Snohomish County (Paine Field) Airport Everett US
ICAO: KPAE
IATA: PAE
Category: Medium
Scheduled Services: No

Elevation: 606 ft
TransAlt. 18000 ft.

Airport Communications:
ATIS:128.65
CLNC DEL:126.75
SEATTLE CNTR:128.5
CTAF:132.95
GND:121.8
AR OPS:34.1
SEATTLE RDO:132.96
ACFT ARR E OF CNTRLN ORRY 16L/34R:120.2
ACFT ARR W OF CNTRLN ORRY 16R/34L:132.95
UNICOM:122.95

KPAE Zoom In..

If you have problems with the map follow the link
https://www.worldairports.se/pages/airport.php?
ICAO=KPAE

Runways:

(A) RW 11 length 4504 ft width 75 ft
---- / hdg 117

(B) RW 16L length 3004 ft width 75 ft
---- / hdg 163

(C) RW 16R length 9010 ft width 150 ft
ILS 109.30 / hdg 162

(D) RW 29 length 4504 ft width 75 ft
---- / hdg 297

(E) RW 34L length 9010 ft width 150 ft
---- / hdg 342

(F) RW 34R length 3004 ft width 75 ft
---- / hdg 343

Location; KPAE
Day. 14 / Time. 21.53 Zulu
* Altimeter: 29.43
* Temperature: 13° c. 55.4°f.
* Wind from: 130° Speed 16 kn with Gusts up to 25 kn.
Dewpoint: -03° c.
Visibility: 10 Statute Miles.
Clouds: Clear (automated report).

KPAE 142153Z 13016G25KT 10SM CLR 13/M03 A2943 RMK AO2 PK WND 12026/2142 SLP967 T01331033


Wind From 130°
Speed 16 kn.

 
 
jpsmedia.com for Web Design worldairports.se 2018   terms of use